Meath Environmental Platform

Observations for Trim Market St

Time AQI Temp °C Hum % Pres Pa CO μg/m³ H₂S μg/m³ NO μg/m³ NO₂ μg/m³ O₃ μg/m³ SO₂ μg/m³ PM1 μg/m³ PM2.5 μg/m³ PM10 μg/m³
Tuesday 11 August 2026
13:57 2 40.3 17 67,065 0 0 0 49.82 48.31 1.39 0.71 4.42 4.7
13:56 2 40.1 17 67,037 0 0 0 15.45 150.71 4.38 0.71 4.43 4.87
13:55 2 40 17 67,035 0 0 0.07 15.46 78.29 2.53 0.71 4.43 4.88
13:54 2 39.9 17 67,035 0 0 0.06 14.21 87.04 4.86 0 3.85 4.24
13:53 2 39.8 18 67,009 0 0 0.07 15.17 114.42 4.91 0 3.84 4.22
13:52 2 39.7 18 67,011 0 0 0.08 15.9 123.62 2.92 0 3.84 4.22
13:51 2 39.6 18 66,971 0 0 0.1 12.69 82.02 4.25 0 3.84 4.23
13:50 2 39.5 18 66,955 0 0 0.13 18.63 68.13 1.84 0 4.4 4.84
13:49 2 39.5 18 66,937 0 0 0.14 13.18 81.96 4.86 0 3.27 3.6
13:48 2 39.4 18 66,945 0 0 0.2 14.94 93.78 4.67 0 3.26 3.59
13:47 2 39.3 18 66,955 0 0 0.24 15.49 91.84 3.52 0.71 4.39 4.83
13:43 2 39.1 19 66,963 0 0 0.22 11.43 65.5 4.34 0 3.24 3.56
13:41 2 39 20 66,953 0 0 0.16 14.28 71.98 4.37 0.71 3.72 4.09
13:39 2 38.9 20 66,932 0 2.8 0.2 16.24 73.78 3.96 0 3.17 3.49
13:38 2 38.9 20 66,888 0 3.67 0.19 24.21 66.49 2.64 0 3.72 4.09
13:30 2 38.2 21 66,886 0 17.8 0.1 16.14 92.74 4.7 0 3.7 4.07
13:29 2 38.2 21 66,867 0 13.68 0.09 18.15 75.56 4.54 0.71 4.26 4.68
13:28 2 38.1 21 66,839 0 17.48 0.15 17.42 92.97 4.91 0.71 4.26 4.68
13:26 2 38.2 20 66,841 0 17.72 0.2 19.13 106.44 4.87 0 3.72 4.09
13:25 2 38.3 20 66,869 0 6.13 0.23 15.45 97.73 5.26 0 3.17 3.49